sat.trackr.live / text

‹ back to catalog

STARLINK-11225 [DTC]

NORAD 60912 · 2024-154K

PAYLOAD ACTIVE UNKNOWN

§ Identity

Operator
Country
US
Launch date
2024-08-31
Launch site
AFETR
Launch vehicle
Mass (kg)
RCS (m²)

Purposes: comms

External: N2YO · Heavens-Above · Gunter

§ Orbital elements

Epoch: 2026-09-21T08:06:56.022624Z

Period
91.74 min
Inclination
53.1578°
Eccentricity
0.0001588
Mean motion
15.69707110 rev/d
Perigee alt
358.7 km
Apogee alt
360.8 km
Semi-major
6,737.9 km
B*
5.9414e-7
RAAN
246.7530°
Arg perigee
58.9416°
Mean anomaly
301.1758°
Rev number
11,923

§ Raw data

STARLINK-11225 [DTC]1 60912U 24154K   26264.33814841 -.00000517  00000+0  59414-6 0  99982 60912  53.1578 246.7530 0001588  58.9416 301.1758 15.69707110119239

JSON: /api/v1/satellites/60912 · /tle

For live sub-satellite position, see the globe view (requires WebGL).

§ Visibility from observer

Set your observer location to see the next 7 days of passes ≥ 10°. The values pass through the URL so the page stays shareable.

No JS? Fill the form by hand. The geolocation button needs JavaScript.